CAPE
0 0 0 0 0 0 0 0 0 0 0 0 0 0 0 0 16 23 21 31 0 473 280 556 335 692 1192 1356 923 654 597 378 266 304 463 367 509 562 481 311 228 154 64 0 0 0 0 0 0
0 0 0 0 0 0 0 0 0 0 0 0 0 0 0 0 0 0 11 69 0 696 559 392 370 650 1025 1515 1101 974 825 668 374 459 538 420 607 455 313 237 190 98 42 0 0 0 0 0 0
0 0 0 0 0 0 0 0 0 0 0 0 0 0 0 0 0 0 2 125 41 709 592 466 590 433 927 1555 1286 1125 1019 982 668 676 629 570 657 391 313 230 93 37 0 0 0 0 0 0 0
0 0 0 0 0 0 0 0 0 0 0 0 0 0 0 0 0 0 103 146 171 434 639 919 621 274 828 1284 1591 1249 1194 1186 1016 838 741 621 647 490 328 110 25 21 0 0 0 0 0 0 0
0 0 0 0 0 0 0 0 0 0 0 0 0 0 0 0 0 0 251 177 216 240 573 1149 397 588 634 1102 1499 1466 1375 1308 1211 1017 859 644 596 426 145 8 0 0 0 0 0 0 0 0 0
0 0 0 0 0 0 0 0 0 0 0 0 0 0 0 0 0 1 419 334 217 216 363 1532 459 765 543 804 1168 1381 1445 1333 1321 1199 998 800 549 250 45 0 0 0 0 0 0 0 0 0 0
0 0 1 0 0 0 0 0 0 0 0 0 0 0 0 0 0 4 511 403 355 266 289 1557 515 853 652 617 873 1179 1262 1272 1167 1105 999 764 412 115 15 0 0 0 0 0 0 0 0 0 0
0 0 1 10 0 0 0 0 0 0 0 0 0 0 0 0 0 0 450 367 438 256 223 893 344 627 666 750 725 805 993 1022 975 895 774 557 239 80 20 0 0 0 0 0 0 0 0 0 0
0 0 0 0 18 19 9 1 0 0 0 0 0 0 0 0 0 0 0 512 393 292 178 576 325 461 358 237 786 627 632 751 795 723 615 312 69 99 72 0 0 0 0 0 0 0 0 0 0
0 0 0 0 6 34 47 17 0 0 0 0 0 0 0 0 0 0 0 98 404 377 192 299 505 478 325 111 405 389 392 406 437 311 338 261 78 72 2 0 0 0 0 6 0 0 0 0 0
0 0 0 0 0 16 8 29 10 0 0 0 0 0 0 0 0 0 0 0 133 415 237 167 644 789 385 149 295 307 237 283 348 316 387 302 107 111 121 85 41 31 5 0 0 0 0 0 0
0 0 0 0 0 6 3 0 0 7 6 0 0 0 0 0 0 0 0 0 17 205 283 143 633 745 782 220 227 389 129 327 299 338 534 577 314 391 477 194 209 244 53 25 0 12 12 4 0
0 0 0 0 0 0 0 0 0 0 0 0 0 0 0 0 0 0 0 0 0 17 201 238 337 918 1134 1217 316 387 248 305 294 342 584 589 490 623 722 505 184 164 150 86 145 45 16 24 21
0 0 0 0 0 0 0 0 0 0 0 0 0 0 0 0 0 0 0 0 0 12 86 193 249 795 1210 1357 1391 797 669 345 423 430 640 1099 819 896 535 519 330 226 104 94 89 128 87 46 17
0 0 0 0 0 0 0 0 0 0 0 0 0 0 0 0 0 0 0 0 0 0 10 302 393 414 1252 1614 1570 1331 727 662 604 620 903 1207 1383 876 727 385 379 282 222 318 206 165 115 77 30
0 0 0 0 0 0 0 0 0 0 0 0 0 0 0 0 0 0 0 0 0 0 0 37 253 369 676 1226 1524 1364 955 824 569 684 682 911 1600 1151 938 463 393 315 210 203 395 333 86 92 133
0 0 0 0 0 0 0 0 0 0 0 0 0 0 0 0 0 0 0 0 0 0 0 268 706 653 1047 1076 1063 1172 914 593 515 450 582 862 1079 1192 1041 759 458 432 153 239 385 267 124 230 261
0 0 0 0 0 0 0 0 0 0 0 0 0 0 0 0 0 0 0 0 0 0 0 3 286 367 354 1097 1187 872 705 518 315 179 209 183 737 881 1008 693 514 246 226 211 359 250 346 432 526
0 0 0 0 0 0 0 0 0 0 0 0 0 0 0 0 0 0 0 0 0 0 0 0 4 1034 66 317 722 1032 593 423 302 244 203 266 460 651 692 663 371 268 97 458 579 536 474 804 1012
0 0 0 0 0 0 0 0 0 0 0 0 0 0 0 0 0 0 0 0 0 0 0 0 0 0 795 581 310 601 616 265 172 167 101 199 249 611 529 319 153 173 324 791 888 684 944 1365 1380
0 0 0 0 0 0 0 0 0 0 0 0 0 0 0 0 0 0 0 0 0 0 0 0 0 1 0 304 1486 1770 1821 1869 1316 638 235 306 358 558 239 399 19 211 500 1048 1274 1280 1581 1281 1405
0 0 0 0 0 0 0 0 0 0 0 0 0 0 0 0 0 0 0 0 0 0 0 0 0 0 9 10 12 301 306 570 1253 1899 1706 1044 1094 978 779 393 267 322 1243 1472 1819 2133 2131 2073 1352
0 0 0 0 0 0 0 0 0 0 0 0 0 0 0 0 0 0 0 0 0 0 0 0 0 0 0 33 25 0 89 557 338 31 236 1714 1944 1557 1032 1027 1131 1586 1934 2121 2140 2577 2711 2153 1853
0 0 0 0 0 0 0 0 0 1 0 0 0 0 0 0 0 0 0 0 0 0 0 0 0 0 0 0 2 31 27 96 247 406 343 377 472 774 434 2094 2264 2540 2792 2699 2849 2785 2905 2459 2155
0 0 0 0 0 0 0 0 0 0 0 0 0 0 0 0 0 0 0 0 0 0 0 0 0 0 0 0 0 0 2 85 199 72 441 569 175 941 2726 2828 2682 2874 3446 3090 2867 3049 2990 2854 2298
0 6 4 1 8 7 0 0 2 0 0 0 0 0 0 0 0 0 0 0 0 0 0 0 0 0 0 0 0 0 0 0 2 32 138 297 855 1099 1429 2983 2698 3060 3128 3254 3185 3017 2987 2652 2444
0 1 4 0 0 0 0 0 0 0 0 0 0 0 0 0 0 0 0 0 0 0 0 0 0 0 0 0 0 0 0 0 0 0 272 183 293 501 826 2798 3008 3153 3002 3133 3197 2980 2905 2455 2400
6 1 10 10 0 0 0 0 4 1 1 0 0 0 0 0 0 0 0 0 0 0 0 0 0 0 0 0 0 0 0 0 0 11 139 263 669 601 459 1336 2354 2832 2985 3079 3194 3047 2784 2149 2020
20 0 2 4 2 14 15 0 0 1 0 1 2 0 0 0 0 0 0 0 0 0 0 0 0 0 0 0 0 0 0 0 0 0 29 196 862 1267 1830 977 1505 2441 2826 3222 3296 2522 1869 2167 2460
20 30 40 7 0 16 32 10 1 0 3 12 1 0 1 7 3 1 0 0 0 0 0 0 0 0 0 0 0 0 0 0 0 0 0 230 626 1170 1416 1604 1639 2020 2778 3124 2784 2193 1483 2427 2385
CIN
-0 -0 -0 -0 -0 -0 -0 -0 -0 -0 -0 -0 -0 -0 -0 -0 -12 -36 -69 -131 -0 -195 -461 -532 -549 -432 -309 -233 -254 -260 -238 -241 -232 -215 -187 -196 -183 -171 -171 -192 -190 -197 -239 -0 -0 -0 -0 -0 -0
-0 -0 -0 -0 -0 -0 -0 -0 -0 -0 -0 -0 -0 -0 -0 -0 -0 -0 -42 -175 -0 -236 -418 -461 -543 -451 -350 -224 -237 -211 -201 -194 -218 -204 -206 -215 -193 -205 -207 -223 -214 -267 -257 -0 -0 -0 -0 -0 -0
-0 -0 -0 -0 -0 -0 -0 -0 -0 -0 -0 -0 -0 -0 -0 -0 -0 -0 -41 -182 -194 -234 -389 -419 -535 -476 -372 -242 -238 -212 -191 -178 -203 -206 -216 -220 -202 -222 -228 -240 -279 -277 -0 -0 -0 -0 -0 -0 -0
-0 -0 -0 -0 -0 -0 -0 -0 -0 -0 -0 -0 -0 -0 -0 -0 -0 -0 -263 -214 -217 -221 -318 -410 -542 -497 -402 -281 -206 -210 -194 -183 -196 -215 -218 -229 -213 -217 -231 -274 -320 -324 -0 -0 -0 -0 -0 -0 -0
-0 -0 -0 -0 -0 -0 -0 -0 -0 -0 -0 -0 -0 -0 -0 -0 -0 -0 -238 -219 -190 -187 -259 -375 -548 -471 -431 -314 -203 -176 -179 -176 -185 -198 -215 -235 -227 -231 -300 -181 -0 -0 -0 -0 -0 -0 -0 -0 -0
-0 -0 -0 -0 -0 -0 -0 -0 -0 -0 -0 -0 -0 -0 -0 -0 -0 -59 -216 -175 -149 -168 -242 -279 -523 -476 -432 -373 -256 -181 -153 -171 -167 -168 -189 -208 -233 -264 -326 -0 -0 -0 -0 -0 -0 -0 -0 -0 -0
-0 -5 -2 -0 -0 -0 -0 -0 -0 -0 -0 -0 -0 -0 -0 -0 -0 -92 -184 -183 -140 -159 -249 -229 -448 -448 -442 -401 -317 -213 -169 -162 -180 -175 -181 -201 -249 -328 -386 -0 -0 -0 -0 -0 -0 -0 -0 -0 -0
-0 -0 -5 -5 -4 -0 -0 -0 -0 -0 -0 -0 -0 -0 -0 -0 -0 -0 -155 -163 -120 -156 -214 -202 -395 -407 -372 -355 -354 -295 -211 -192 -183 -203 -212 -236 -301 -368 -431 -0 -0 -0 -0 -0 -0 -0 -0 -0 -0
-0 -0 -0 -0 -9 -7 -8 -5 -0 -0 -0 -0 -0 -0 -0 -0 -0 -0 -0 -134 -115 -126 -207 -185 -319 -337 -331 -321 -315 -343 -301 -247 -218 -210 -237 -295 -350 -336 -349 -0 -0 -0 -0 -0 -0 -0 -0 -0 -0
-0 -0 -0 -0 -10 -14 -12 -11 -0 -0 -0 -0 -0 -0 -0 -0 -0 -0 -0 -126 -137 -107 -187 -173 -235 -259 -258 -257 -272 -321 -301 -288 -258 -256 -248 -294 -334 -283 -150 -0 -0 -0 -0 -416 -0 -0 -0 -0 -0
-0 -0 -0 -0 -1 -7 -9 -13 -18 -6 -0 -0 -2 -0 -0 -0 -0 -0 -0 -0 -163 -97 -121 -168 -185 -192 -220 -207 -220 -271 -287 -290 -257 -248 -221 -273 -293 -250 -266 -242 -288 -388 -408 -0 -0 -0 -0 -0 -0
-0 -0 -0 -0 -0 -6 -9 -0 -0 -9 -7 -0 -0 -0 -0 -0 -0 -0 -0 -0 -275 -161 -109 -142 -146 -173 -196 -186 -198 -190 -270 -243 -244 -249 -200 -176 -225 -187 -163 -193 -173 -226 -298 -352 -15 -309 -333 -361 -41
-0 -0 -0 -0 -0 -0 -0 -0 -0 -0 -0 -0 -0 -0 -0 -0 -0 -0 -0 -0 -0 -154 -151 -134 -157 -124 -147 -111 -154 -160 -199 -202 -220 -206 -209 -199 -196 -155 -149 -155 -152 -162 -171 -185 -214 -231 -233 -277 -314
-0 -0 -0 -0 -0 -0 -0 -0 -0 -0 -0 -0 -0 -0 -0 -0 -0 -0 -0 -0 -0 -258 -168 -169 -136 -79 -116 -112 -67 -153 -166 -181 -189 -165 -173 -183 -187 -147 -170 -184 -161 -150 -150 -165 -164 -202 -203 -256 -219
-0 -0 -0 -0 -0 -0 -0 -0 -0 -0 -0 -0 -0 -0 -0 -0 -0 -0 -0 -0 -0 -14 -363 -150 -114 -144 -99 -78 -75 -79 -177 -157 -188 -168 -170 -173 -194 -185 -193 -172 -164 -160 -164 -166 -222 -223 -260 -288 -270
-0 -0 -0 -0 -0 -0 -0 -0 -0 -0 -0 -0 -0 -0 -0 -0 -0 -0 -0 -0 -0 -0 -155 -311 -92 -99 -119 -74 -75 -104 -166 -161 -147 -168 -165 -227 -201 -211 -210 -189 -171 -185 -206 -187 -222 -255 -296 -268 -213
-0 -0 -0 -0 -0 -0 -0 -0 -0 -0 -0 -0 -0 -0 -0 -0 -0 -0 -0 -0 -0 -0 -0 -177 -81 -72 -75 -107 -105 -119 -138 -154 -172 -179 -165 -182 -236 -223 -230 -214 -218 -264 -285 -242 -250 -264 -229 -189 -189
-0 -0 -0 -0 -0 -0 -0 -0 -0 -0 -0 -0 -0 -0 -0 -0 -0 -0 -0 -0 -0 -0 -0 -115 -223 -155 -125 -75 -64 -99 -141 -187 -243 -181 -214 -207 -223 -237 -282 -267 -312 -339 -317 -331 -311 -290 -198 -190 -135
-0 -0 -0 -0 -0 -0 -0 -0 -0 -0 -0 -0 -0 -0 -0 -0 -0 -0 -0 -0 -0 -0 -0 -0 -96 -93 -228 -119 -95 -27 -138 -189 -216 -202 -164 -238 -234 -280 -309 -354 -374 -391 -338 -323 -304 -258 -269 -149 -143
-0 -0 -0 -0 -0 -0 -0 -0 -0 -0 -0 -0 -0 -0 -0 -0 -0 -0 -0 -0 -0 -0 -0 -0 -0 -0 -105 -133 -145 -146 -115 -231 -303 -240 -217 -217 -271 -339 -353 -415 -355 -300 -252 -257 -265 -281 -179 -145 -106
-0 -0 -0 -0 -0 -0 -0 -0 -0 -0 -0 -0 -0 -0 -0 -0 -0 -0 -0 -0 -0 -0 -0 -0 -0 -89 -0 -167 -15 -6 -15 -42 -147 -136 -153 -151 -188 -311 -396 -430 -372 -272 -209 -160 -233 -232 -201 -87 -74
-0 -0 -0 -0 -0 -0 -0 -0 -0 -0 -0 -0 -0 -0 -0 -0 -0 -0 -0 -0 -0 -0 -0 -0 -0 -0 -259 -256 -294 -159 -88 -154 -94 -31 -39 -71 -159 -196 -325 -450 -361 -273 -154 -149 -94 -162 -157 -146 -55
-0 -0 -0 -0 -0 -0 -0 -0 -0 -0 -0 -0 -0 -0 -0 -0 -0 -0 -0 -0 -0 -0 -0 -0 -0 -0 -0 -315 -323 -8 -204 -128 -226 -162 -74 -13 -29 -193 -107 -220 -306 -199 -133 -81 -123 -92 -141 -106 -108
-0 -0 -0 -0 -0 -0 -0 -0 -0 -1 -0 -0 -0 -0 -0 -0 -0 -0 -0 -0 -0 -0 -0 -0 -0 -0 -0 -0 -146 -277 -238 -182 -109 -31 -26 -49 -193 -224 -121 -5 -177 -131 -103 -131 -93 -83 -82 -133 -58
-0 -0 -0 -0 -1 -0 -3 -0 -0 -0 -0 -0 -0 -0 -0 -0 -0 -0 -0 -0 -0 -0 -0 -0 -0 -0 -0 -0 -0 -0 -224 -227 -212 -237 -90 -120 -155 -101 -9 -68 -96 -98 -107 -116 -107 -83 -64 -67 -81
-1 -6 -9 -10 -18 -15 -0 -0 -7 -0 -0 -0 -0 -0 -0 -0 -0 -0 -0 -0 -0 -0 -0 -0 -0 -0 -0 -0 -0 -0 -0 -0 -34 -233 -198 -124 -67 -15 -5 -41 -104 -99 -100 -85 -90 -71 -75 -64 -73
-5 -10 -8 -0 -1 -0 -0 -0 -0 -0 -0 -0 -0 -0 -0 -0 -0 -0 -0 -0 -0 -0 -0 -0 -0 -0 -0 -0 -0 -0 -0 -0 -0 -0 -180 -197 -183 -130 -54 -13 -89 -85 -96 -80 -78 -92 -67 -57 -71
-8 -9 -18 -8 -4 -0 -0 -0 -6 -16 -6 -2 -0 -0 -0 -0 -0 -0 -0 -0 -0 -0 -0 -0 -0 -0 -0 -0 -0 -0 -0 -0 -0 -176 -199 -203 -146 -184 -161 -95 -83 -102 -100 -97 -66 -72 -40 -92 -69
-13 -0 -7 -11 -13 -3 -9 -0 -36 -39 -0 -4 -2 -0 -0 -0 -0 -0 -0 -0 -0 -0 -0 -0 -0 -0 -0 -0 -0 -0 -0 -0 -0 -0 -148 -158 -118 -127 -74 -163 -156 -120 -104 -81 -63 -96 -93 -72 -39
-12 -10 -11 -14 -0 -8 -9 -7 -55 -0 -6 -8 -3 -0 -3 -6 -5 -2 -0 -0 -0 -0 -0 -0 -0 -0 -0 -0 -0 -0 -0 -0 -0 -0 -0 -125 -103 -96 -104 -99 -98 -102 -84 -52 -82 -128 -77 -17 -39
Wind_Speed
27 23 22 21 21 22 30 25 20 20 26 24 16 15 21 22 17 16 9 14 8 5 10 19 20 20 22 24 27 27 27 27 29 30 30 30 30 30 30 29 28 27 26 25 24 24 23 24 23
24 23 21 24 23 28 27 27 19 24 15 18 23 22 23 22 15 12 14 15 10 3 7 14 20 21 22 25 27 27 28 28 29 28 28 29 28 28 28 28 26 26 25 25 24 23 23 23 23
24 22 25 25 27 30 26 20 20 17 19 21 21 22 24 20 17 18 22 16 16 4 7 12 24 22 22 23 25 26 27 28 28 28 28 28 28 27 26 26 25 25 24 23 23 22 22 22 21
22 23 24 30 30 30 28 16 17 19 18 21 20 20 17 15 20 24 26 22 21 9 2 12 21 21 21 21 22 24 25 26 26 27 27 26 26 25 25 24 23 23 22 22 21 21 21 21 20
24 27 34 35 35 35 24 31 28 26 26 23 20 22 19 12 22 26 26 24 21 12 9 8 16 18 20 20 16 17 21 24 24 25 24 24 23 23 22 21 20 20 20 20 19 19 19 19 18
29 28 38 39 37 33 33 28 28 30 25 25 22 24 22 16 24 27 25 25 20 16 12 9 15 15 17 18 16 16 14 18 20 21 21 21 21 20 19 19 18 17 17 17 17 17 16 16 15
32 35 40 43 39 32 29 25 30 28 28 24 22 22 18 19 25 25 23 24 21 16 11 12 14 14 13 15 15 14 11 11 15 17 18 17 17 17 17 16 15 15 15 14 14 14 14 13 12
29 36 49 45 43 41 26 27 26 30 30 20 20 23 22 22 25 25 22 23 21 15 13 12 14 14 14 13 12 13 10 7 7 11 14 13 13 14 14 13 13 12 12 12 11 11 11 11 10
20 41 49 48 44 40 33 30 27 29 30 30 26 27 25 24 25 25 24 20 22 17 14 14 14 14 14 13 11 10 9 7 5 5 7 9 12 11 11 11 10 9 9 9 9 8 8 8 7
23 35 46 41 41 42 39 37 27 32 33 34 32 30 29 24 27 27 25 23 21 21 16 15 15 15 14 13 11 12 10 9 9 8 9 10 9 7 8 8 6 6 7 7 6 6 6 5 4
21 35 38 37 42 46 41 39 25 31 37 38 37 34 31 30 30 28 26 25 22 25 21 18 17 19 17 14 13 13 11 9 9 9 8 8 5 2 2 4 4 4 4 5 5 4 4 3 3
27 31 35 43 40 35 39 39 39 42 37 30 35 36 35 34 30 28 26 26 24 24 27 22 17 23 21 22 17 16 15 11 9 9 8 5 4 4 5 2 4 6 4 5 3 4 4 3 3
28 30 35 33 37 35 31 38 44 45 37 31 33 39 40 35 31 30 27 23 26 25 23 27 24 25 26 22 26 23 20 15 13 11 10 9 7 9 7 9 6 8 8 6 7 5 6 5 4
23 31 34 30 30 30 35 41 41 45 39 41 39 38 37 34 34 31 29 30 24 26 26 28 29 25 24 30 25 30 25 20 17 19 14 13 11 10 8 10 9 11 10 8 8 7 8 6 5
28 33 33 35 31 31 31 42 40 41 40 41 39 37 37 39 31 30 30 27 28 25 26 27 31 28 28 27 37 27 31 29 22 24 22 17 17 15 9 13 8 9 8 10 9 10 14 10 9
28 30 35 32 28 27 26 46 37 37 35 37 39 36 35 37 34 29 28 27 28 26 24 28 27 29 30 29 30 34 34 34 30 27 28 25 21 20 16 15 15 12 8 13 11 15 13 17 11
25 33 29 29 17 25 23 34 32 21 24 29 36 35 34 34 31 30 28 27 27 27 25 24 24 27 27 28 31 37 36 30 35 33 33 23 22 22 21 16 12 11 11 14 15 9 7 10 13
30 29 30 26 16 23 28 32 31 19 23 29 32 36 37 31 28 29 27 28 28 28 26 27 29 36 35 29 31 35 34 37 36 34 27 34 27 25 19 21 14 7 8 11 10 8 5 10 15
31 32 29 23 23 26 33 36 36 32 32 31 31 31 34 35 28 26 29 29 29 27 26 26 27 28 36 44 36 36 37 40 35 36 35 34 23 19 18 16 11 12 12 10 9 8 8 13 13
29 31 33 32 28 31 37 41 40 38 37 40 37 34 34 32 32 30 33 32 32 31 27 27 25 26 26 33 43 40 38 33 34 38 36 38 28 23 24 17 14 21 12 11 9 11 11 14 14
28 30 31 31 29 32 38 44 44 38 36 36 36 36 33 32 30 26 30 28 32 34 32 31 29 26 26 28 29 39 38 34 36 39 38 39 26 25 26 22 19 19 15 13 12 11 12 15 13
30 27 27 29 31 34 21 37 24 19 20 21 22 23 25 25 23 23 25 25 30 33 33 32 31 31 30 29 30 32 37 38 35 40 43 41 31 26 28 26 24 16 13 15 14 14 12 13 16
30 27 28 31 34 36 35 35 33 27 21 17 17 19 20 21 22 22 21 23 24 27 32 30 30 33 34 33 32 32 34 30 35 46 49 39 23 24 38 44 18 17 15 15 15 14 12 13 12
29 30 32 33 34 40 35 33 30 24 18 13 12 17 20 21 21 21 19 20 21 21 22 28 30 31 34 35 34 33 34 34 33 32 34 25 27 30 34 22 17 14 15 17 16 15 14 15 14
26 30 36 36 28 34 23 22 27 21 13 14 19 24 23 23 23 21 21 20 21 25 24 26 29 32 27 32 34 35 36 34 36 39 38 31 33 31 23 18 17 16 20 17 17 15 15 14 14
27 30 35 38 35 32 11 26 24 21 13 17 22 25 24 22 22 20 22 23 25 26 28 31 31 33 33 32 36 36 38 37 39 37 39 38 34 30 26 21 19 21 20 18 17 16 15 14 15
32 32 30 38 41 42 39 39 29 15 18 18 21 20 22 22 21 24 24 25 28 30 33 34 36 37 38 38 37 38 39 39 42 40 40 38 37 34 29 22 23 22 21 21 19 17 16 14 14
28 26 27 28 36 39 35 32 32 11 13 15 20 21 22 21 22 26 27 31 35 36 36 36 37 39 39 40 39 40 40 40 39 41 43 41 37 33 35 28 26 26 24 22 18 17 16 14 15
22 32 30 35 27 30 35 28 14 11 14 17 19 23 23 26 30 33 35 36 37 38 40 39 38 39 39 39 38 39 40 41 42 42 42 41 40 38 34 33 30 28 24 22 20 17 15 14 15
28 22 29 37 34 36 39 43 33 21 23 18 23 24 28 32 34 33 31 36 38 38 37 40 41 40 40 39 40 40 40 41 43 43 43 42 39 37 34 35 33 29 25 22 19 16 14 13 15
Wind_Direction
291 297 291 277 273 272 263 266 272 280 264 266 281 267 269 273 289 290 331 316 350 48 104 118 114 114 118 122 124 122 120 116 118 118 116 114 109 109 108 105 101 98 96 93 88 80 75 78 80
293 295 289 272 269 263 265 264 271 270 282 272 271 268 268 267 313 296 312 303 309 19 104 119 124 122 121 125 127 125 124 121 121 117 115 115 112 110 109 106 103 101 99 95 90 87 80 84 86
289 288 275 269 264 260 261 286 271 273 281 274 273 265 267 272 297 288 293 294 277 312 117 125 137 128 126 126 127 128 127 125 124 122 121 120 117 112 110 107 106 104 100 95 91 90 87 86 88
288 280 277 265 264 261 266 279 289 280 280 272 275 273 273 298 294 288 279 275 268 276 181 137 140 134 131 129 129 129 129 128 127 125 125 122 119 116 113 108 106 106 99 96 95 91 88 86 87
281 276 266 264 262 260 268 267 271 278 276 274 272 267 268 294 295 287 274 270 264 263 242 165 148 140 136 134 129 128 129 131 129 129 126 124 121 118 113 109 104 103 99 97 96 95 93 89 88
270 268 263 261 262 262 265 269 270 268 278 274 273 266 274 296 294 286 278 269 265 255 237 207 159 153 144 139 137 133 131 130 131 129 128 127 123 119 116 112 104 101 99 95 97 97 96 92 89
265 263 261 261 263 266 266 270 265 267 270 274 276 267 276 298 290 287 285 269 263 250 214 220 177 166 160 150 145 140 138 134 130 129 130 127 124 120 117 115 105 98 98 91 94 95 91 86 88
267 265 258 259 259 263 271 268 269 266 265 286 277 268 274 299 289 286 289 273 262 245 219 209 181 177 173 166 161 152 150 155 139 131 129 124 121 118 117 114 112 101 98 95 95 91 86 82 78
268 262 259 257 261 263 270 269 270 269 267 268 272 273 285 294 290 287 284 281 262 244 224 215 203 191 189 181 181 177 172 172 173 155 133 127 130 126 121 125 111 101 95 87 77 81 80 82 73
258 264 260 265 265 265 269 267 267 264 265 264 270 272 279 286 286 283 280 279 264 248 229 220 210 212 203 198 199 200 188 175 168 164 151 146 138 123 128 120 101 91 94 90 88 72 67 74 81
259 265 269 269 266 264 270 267 266 261 263 263 268 271 276 277 280 279 278 274 275 250 241 230 220 227 218 213 214 220 221 209 186 182 174 163 153 124 86 71 76 65 98 114 99 71 64 86 60
264 270 271 267 268 273 266 271 267 267 270 271 268 273 274 273 277 277 278 273 268 258 245 238 226 232 231 234 228 230 230 226 222 212 212 227 227 280 316 27 28 21 67 66 84 52 54 72 34
271 271 272 275 271 275 275 267 268 267 274 278 275 271 269 270 271 273 275 274 268 266 245 245 242 238 238 245 237 239 236 237 238 238 231 238 250 279 296 310 329 338 356 10 14 25 21 28 18
275 277 273 276 277 275 273 271 271 266 270 272 271 271 268 267 271 270 269 268 267 264 260 250 241 240 240 243 252 239 242 243 245 253 249 243 258 273 287 301 311 317 327 348 358 9 1 5 1
279 278 277 271 274 275 279 272 271 273 270 268 269 275 270 267 269 267 266 265 262 268 263 255 248 241 243 249 241 249 244 246 250 254 256 256 259 269 275 292 300 308 322 332 346 353 340 347 351
280 278 276 277 271 273 274 270 277 276 268 265 271 274 271 271 262 265 264 262 262 267 271 259 247 246 244 245 247 249 245 247 253 255 256 256 262 267 276 285 291 300 309 314 326 330 335 332 347
275 275 276 280 277 278 270 278 285 275 276 276 270 269 271 269 268 261 261 262 263 268 269 264 256 248 248 248 252 248 252 255 254 257 256 260 260 266 270 281 285 291 299 307 323 325 336 341 342
279 272 274 275 284 280 276 278 277 283 280 280 276 269 267 271 273 264 260 263 266 266 271 268 265 254 248 252 254 253 253 254 255 257 254 262 264 264 264 274 280 265 275 308 307 317 312 325 335
285 280 278 285 279 285 279 279 277 279 278 279 278 276 269 267 271 271 264 265 267 268 268 269 270 273 251 248 254 255 253 255 256 258 259 265 265 253 260 272 258 282 290 276 289 300 309 324 332
280 278 277 280 283 283 281 277 278 276 276 272 273 273 270 271 270 269 265 270 264 264 266 269 272 273 269 252 252 258 263 257 256 259 264 263 258 259 259 257 266 285 276 263 268 291 296 314 322
281 279 279 282 286 287 285 278 278 277 275 273 271 271 271 272 270 275 266 277 265 261 262 268 270 273 270 265 259 252 258 262 263 261 266 263 257 257 257 248 264 273 262 257 265 281 285 304 311
281 288 283 283 284 282 295 281 290 294 286 281 278 276 275 273 275 275 276 274 272 266 264 264 267 270 272 269 266 269 261 261 265 264 263 267 259 262 264 257 262 248 248 253 273 288 287 298 305
283 292 285 285 282 282 281 281 286 282 281 280 280 285 285 282 280 280 281 282 284 277 267 272 272 267 270 269 270 271 269 268 264 256 262 256 247 267 265 264 247 264 242 262 278 287 284 295 286
289 286 284 282 281 276 280 276 278 286 283 277 287 295 290 287 287 287 287 288 286 288 286 276 273 275 272 271 269 269 269 267 267 266 259 268 268 263 277 240 253 249 257 278 282 280 286 288 293
283 282 280 278 273 278 283 279 273 300 298 295 292 295 293 290 291 288 286 288 288 287 286 287 281 275 282 276 273 270 270 269 268 270 275 275 273 273 252 252 262 257 277 279 281 282 284 288 284
279 279 275 276 276 279 287 282 296 284 286 296 296 295 294 291 293 294 293 292 290 290 288 286 285 283 283 283 278 273 271 272 268 270 270 271 273 276 274 268 268 276 278 280 285 284 283 285 289
275 273 285 279 277 276 275 283 294 286 286 292 297 303 302 293 291 294 295 294 294 295 291 289 287 285 281 280 280 277 275 274 269 271 271 271 271 274 277 271 268 272 275 281 284 283 281 285 289
278 284 281 280 275 274 277 281 287 262 271 286 299 302 303 304 300 299 299 295 293 292 292 290 287 286 284 281 279 277 275 273 273 270 268 269 273 272 271 271 270 272 275 277 274 281 282 281 290
281 272 275 278 275 281 275 280 310 311 299 309 307 307 306 303 300 298 298 298 298 296 293 290 287 284 283 281 279 278 276 273 271 270 269 269 271 271 271 268 268 270 270 267 269 274 279 279 289
282 275 273 271 271 273 276 269 279 305 301 309 307 307 303 301 302 302 304 303 300 298 296 292 287 284 282 281 279 279 278 274 270 269 269 268 270 271 271 269 267 269 267 263 261 262 274 275 290